Location: Newark
(48.8604°N, 2.3376°E)
Time: 14:40:55
(UTC+00:00)

N. Korean satellite - Pass Details

Date: 29 September 2021
Orbit: 450 x 495 km, 97.3° (Epoch: 19 October)

Event Time Altitude Azimuth Distance (km) Brightness Sun altitude
Rises 04:45:23 0° 19° (NNE) 2,539 10.6 -11.0°
Reaches altitude 10° 04:47:33 10° 28° (NNE) 1,664 9.8 -10.6°
Maximum altitude 04:50:54 38° 98° (E) 761 8.2 -10.1°
Drops below altitude 10° 04:54:17 10° 167° (SSE) 1,672 9.4 -9.5°
Sets 04:56:27 0° 176° (S) 2,554 10.2 -9.2°
